Time,TemperatureF,DewpointF,PressureIn,WindDirection,WindDirectionDegrees,WindSpeedMPH,WindSpeedGustMPH,Humidity,HourlyPrecipIn,Conditions,Clouds,dailyrainin,SoftwareType,DateUTC
2013-03-21 00:05:00,37.0,35.0,29.99,WSW,252,0.0,0.0,93,0.00,,,0.00,weatherlink.com 1.10,2013-03-21 07:05:00,
2013-03-21 00:20:00,36.7,35.0,29.99,WSW,249,1.0,2.0,93,0.00,,,0.00,weatherlink.com 1.10,2013-03-21 07:20:00,
2013-03-21 00:35:00,36.6,34.0,29.99,WSW,257,1.0,1.0,90,0.00,,,0.00,weatherlink.com 1.10,2013-03-21 07:35:00,
2013-03-21 00:50:00,37.7,35.0,30.00,East,101,2.0,5.0,88,0.00,,,0.00,weatherlink.com 1.10,2013-03-21 07:50:00,
2013-03-21 01:05:00,38.5,34.0,30.01,ESE,117,2.0,3.0,85,0.00,,,0.00,weatherlink.com 1.10,2013-03-21 08:05:00,
2013-03-21 01:20:00,37.2,34.0,30.01,West,260,2.0,3.0,88,0.00,,,0.00,weatherlink.com 1.10,2013-03-21 08:20:00,
2013-03-21 01:35:00,37.2,34.0,30.02,East,84,1.0,1.0,88,0.00,,,0.00,weatherlink.com 1.10,2013-03-21 08:35:00,
2013-03-21 01:50:00,38.2,34.0,30.02,SW,234,1.0,5.0,85,0.00,,,0.00,weatherlink.com 1.10,2013-03-21 08:50:00,
2013-03-21 02:05:00,37.8,34.0,30.03,WSW,249,1.0,2.0,85,0.00,,,0.00,weatherlink.com 1.10,2013-03-21 09:05:00,
2013-03-21 02:20:00,37.2,33.0,30.04,WNW,291,0.0,1.0,86,0.00,,,0.00,weatherlink.com 1.10,2013-03-21 09:20:00,
2013-03-21 02:35:00,36.5,34.0,30.04,SSE,155,2.0,4.0,89,0.00,,,0.00,weatherlink.com 1.10,2013-03-21 09:35:00,
2013-03-21 02:50:00,36.5,34.0,30.04,NNE,19,1.0,3.0,89,0.00,,,0.00,weatherlink.com 1.10,2013-03-21 09:50:00,
2013-03-21 03:05:00,37.0,34.0,30.05,East,92,1.0,2.0,87,0.00,,,0.00,weatherlink.com 1.10,2013-03-21 10:05:00,
2013-03-21 03:20:00,35.7,33.0,30.06,WSW,249,3.0,3.0,89,0.00,,,0.00,weatherlink.com 1.10,2013-03-21 10:20:00,
2013-03-21 03:35:00,34.7,32.0,30.06,WSW,253,0.0,2.0,91,0.00,,,0.00,weatherlink.com 1.10,2013-03-21 10:35:00,
2013-03-21 03:50:00,34.5,33.0,30.06,WSW,245,1.0,1.0,92,0.00,,,0.00,weatherlink.com 1.10,2013-03-21 10:50:00,
2013-03-21 04:05:00,33.9,32.0,30.06,WSW,250,0.0,1.0,93,0.00,,,0.00,weatherlink.com 1.10,2013-03-21 11:05:00,
2013-03-21 04:20:00,33.6,32.0,30.07,WSW,256,1.0,2.0,93,0.00,,,0.00,weatherlink.com 1.10,2013-03-21 11:20:00,
2013-03-21 04:35:00,33.4,32.0,30.07,West,259,2.0,2.0,94,0.00,,,0.00,weatherlink.com 1.10,2013-03-21 11:35:00,
2013-03-21 04:50:00,33.2,32.0,30.07,West,270,1.0,2.0,94,0.00,,,0.00,weatherlink.com 1.10,2013-03-21 11:50:00,
2013-03-21 05:05:00,32.9,32.0,30.08,WSW,254,1.0,3.0,95,0.00,,,0.00,weatherlink.com 1.10,2013-03-21 12:05:00,
2013-03-21 05:20:00,33.0,32.0,30.08,WSW,257,1.0,1.0,95,0.00,,,0.00,weatherlink.com 1.10,2013-03-21 12:20:00,
2013-03-21 05:51:00,32.8,32.0,30.09,WSW,240,0.0,2.0,96,0.00,,,0.00,weatherlink.com 1.10,2013-03-21 12:51:00,
2013-03-21 06:06:00,32.8,32.0,30.10,West,262,1.0,2.0,95,0.00,,,0.00,weatherlink.com 1.10,2013-03-21 13:06:00,
2013-03-21 06:21:00,33.1,32.0,30.10,West,273,2.0,3.0,96,0.00,,,0.00,weatherlink.com 1.10,2013-03-21 13:21:00,
2013-03-21 06:36:00,32.8,32.0,30.10,West,259,1.0,2.0,96,0.00,,,0.00,weatherlink.com 1.10,2013-03-21 13:36:00,
2013-03-21 06:51:00,32.8,32.0,30.11,West,262,0.0,1.0,96,0.00,,,0.00,weatherlink.com 1.10,2013-03-21 13:51:00,
2013-03-21 07:06:00,32.7,32.0,30.11,West,269,1.0,2.0,96,0.00,,,0.00,weatherlink.com 1.10,2013-03-21 14:06:00,
2013-03-21 07:21:00,32.4,31.0,30.11,West,267,0.0,2.0,96,0.00,,,0.00,weatherlink.com 1.10,2013-03-21 14:21:00,
2013-03-21 07:36:00,32.7,32.0,30.11,West,260,2.0,2.0,96,0.00,,,0.00,weatherlink.com 1.10,2013-03-21 14:36:00,
2013-03-21 07:51:00,33.6,33.0,30.12,West,266,1.0,2.0,97,0.00,,,0.00,weatherlink.com 1.10,2013-03-21 14:51:00,
2013-03-21 08:21:00,35.6,34.0,30.12,ESE,123,0.0,1.0,95,0.00,,,0.00,weatherlink.com 1.10,2013-03-21 15:21:00,
2013-03-21 09:06:00,40.4,36.0,30.12,East,99,1.0,2.0,84,0.00,,,0.00,weatherlink.com 1.10,2013-03-21 16:06:00,
2013-03-21 09:21:00,39.3,36.0,30.13,North,4,1.0,3.0,87,0.00,,,0.00,weatherlink.com 1.10,2013-03-21 16:21:00,
2013-03-21 09:36:00,39.3,35.0,30.13,NE,46,0.0,3.0,84,0.00,,,0.00,weatherlink.com 1.10,2013-03-21 16:36:00,
2013-03-21 09:51:00,39.8,35.0,30.13,NE,43,0.0,3.0,84,0.00,,,0.00,weatherlink.com 1.10,2013-03-21 16:51:00,
2013-03-21 10:06:00,41.3,35.0,30.13,NE,46,3.0,3.0,79,0.00,,,0.00,weatherlink.com 1.10,2013-03-21 17:06:00,
2013-03-21 10:21:00,40.7,35.0,30.14,NE,34,4.0,4.0,81,0.00,,,0.00,weatherlink.com 1.10,2013-03-21 17:21:00,
2013-03-21 10:36:00,40.7,35.0,30.14,NNE,29,2.0,4.0,81,0.00,,,0.00,weatherlink.com 1.10,2013-03-21 17:36:00,
2013-03-21 10:51:00,41.0,36.0,30.14,ENE,68,0.0,3.0,82,0.00,,,0.00,weatherlink.com 1.10,2013-03-21 17:51:00,
2013-03-21 11:06:00,41.6,36.0,30.14,ESE,107,1.0,3.0,81,0.00,,,0.00,weatherlink.com 1.10,2013-03-21 18:06:00,
2013-03-21 11:21:00,42.3,36.0,30.14,SE,132,2.0,4.0,79,0.00,,,0.00,weatherlink.com 1.10,2013-03-21 18:21:00,
2013-03-21 11:36:00,42.9,36.0,30.14,NE,46,4.0,4.0,77,0.00,,,0.00,weatherlink.com 1.10,2013-03-21 18:36:00,
2013-03-21 11:51:00,43.1,36.0,30.14,NE,54,3.0,4.0,75,0.00,,,0.00,weatherlink.com 1.10,2013-03-21 18:51:00,
2013-03-21 12:06:00,43.7,35.0,30.14,ENE,60,2.0,4.0,72,0.00,,,0.00,weatherlink.com 1.10,2013-03-21 19:06:00,
2013-03-21 12:36:00,44.9,35.0,30.13,ESE,117,1.0,5.0,68,0.00,,,0.00,weatherlink.com 1.10,2013-03-21 19:36:00,
2013-03-21 12:52:00,45.3,34.0,30.13,NE,36,3.0,3.0,65,0.00,,,0.00,weatherlink.com 1.10,2013-03-21 19:52:00,
2013-03-21 13:06:00,45.3,36.0,30.13,NE,51,6.0,8.0,69,0.00,,,0.00,weatherlink.com 1.10,2013-03-21 20:06:00,
2013-03-21 13:22:00,44.8,36.0,30.13,NNE,29,7.0,8.0,71,0.00,,,0.00,weatherlink.com 1.10,2013-03-21 20:22:00,
2013-03-21 13:36:00,43.1,37.0,30.14,NE,36,11.0,12.0,79,0.00,,,0.00,weatherlink.com 1.10,2013-03-21 20:36:00,
2013-03-21 14:07:00,43.3,37.0,30.12,NNE,20,6.0,11.0,79,0.00,,,0.00,weatherlink.com 1.10,2013-03-21 21:07:00,
2013-03-21 14:22:00,44.0,37.0,30.12,North,5,3.0,10.0,75,0.00,,,0.00,weatherlink.com 1.10,2013-03-21 21:22:00,
2013-03-21 14:37:00,44.4,37.0,30.12,North,8,5.0,10.0,74,0.00,,,0.00,weatherlink.com 1.10,2013-03-21 21:37:00,
2013-03-21 14:52:00,44.5,37.0,30.11,NNE,23,9.0,10.0,74,0.00,,,0.00,weatherlink.com 1.10,2013-03-21 21:52:00,
2013-03-21 15:07:00,44.2,36.0,30.12,North,4,6.0,12.0,73,0.00,,,0.00,weatherlink.com 1.10,2013-03-21 22:07:00,
2013-03-21 15:22:00,43.6,36.0,30.12,NNE,32,9.0,13.0,74,0.00,,,0.00,weatherlink.com 1.10,2013-03-21 22:22:00,
2013-03-21 15:37:00,43.1,37.0,30.12,NNE,16,13.0,13.0,78,0.00,,,0.00,weatherlink.com 1.10,2013-03-21 22:37:00,
2013-03-21 15:52:00,42.7,37.0,30.12,North,354,8.0,11.0,79,0.00,,,0.00,weatherlink.com 1.10,2013-03-21 22:52:00,
2013-03-21 16:07:00,42.7,37.0,30.12,North,355,2.0,4.0,79,0.00,,,0.00,weatherlink.com 1.10,2013-03-21 23:07:00,
2013-03-21 16:22:00,43.4,37.0,30.12,NE,41,5.0,8.0,79,0.00,,,0.00,weatherlink.com 1.10,2013-03-21 23:22:00,
2013-03-21 16:37:00,43.2,37.0,30.12,North,5,8.0,8.0,79,0.00,,,0.00,weatherlink.com 1.10,2013-03-21 23:37:00,
2013-03-21 16:52:00,42.7,38.0,30.13,NW,325,5.0,11.0,83,0.00,,,0.00,weatherlink.com 1.10,2013-03-21 23:52:00,
2013-03-21 17:07:00,42.6,38.0,30.13,NNE,24,6.0,12.0,84,0.00,,,0.00,weatherlink.com 1.10,2013-03-22 00:07:00,
2013-03-21 17:22:00,42.0,38.0,30.13,North,354,7.0,10.0,84,0.00,,,0.00,weatherlink.com 1.10,2013-03-22 00:22:00,
2013-03-21 17:37:00,40.4,36.0,30.14,North,5,13.0,15.0,85,0.00,,,0.00,weatherlink.com 1.10,2013-03-22 00:37:00,
2013-03-21 17:52:00,39.1,37.0,30.13,ENE,65,6.0,10.0,90,0.01,,,0.01,weatherlink.com 1.10,2013-03-22 00:52:00,
2013-03-21 18:07:00,39.5,37.0,30.12,SSE,167,2.0,4.0,91,0.02,,,0.02,weatherlink.com 1.10,2013-03-22 01:07:00,
2013-03-21 18:22:00,39.8,37.0,30.13,SSE,155,0.0,4.0,90,0.02,,,0.02,weatherlink.com 1.10,2013-03-22 01:22:00,
2013-03-21 18:37:00,39.7,37.0,30.13,SSW,208,0.0,2.0,91,0.02,,,0.02,weatherlink.com 1.10,2013-03-22 01:37:00,
2013-03-21 18:52:00,39.6,38.0,30.13,South,169,1.0,1.0,93,0.01,,,0.02,weatherlink.com 1.10,2013-03-22 01:52:00,
2013-03-21 19:07:00,39.2,37.0,30.12,SSE,160,1.0,2.0,93,0.00,,,0.02,weatherlink.com 1.10,2013-03-22 02:07:00,
2013-03-21 19:22:00,38.8,37.0,30.14,SSW,212,2.0,2.0,94,0.00,,,0.02,weatherlink.com 1.10,2013-03-22 02:22:00,
2013-03-21 19:37:00,38.1,37.0,30.14,SE,124,0.0,2.0,94,0.00,,,0.02,weatherlink.com 1.10,2013-03-22 02:37:00,
2013-03-21 19:52:00,37.2,36.0,30.14,NNW,333,0.0,2.0,95,0.00,,,0.02,weatherlink.com 1.10,2013-03-22 02:52:00,
2013-03-21 20:07:00,36.9,36.0,30.14,West,270,0.0,2.0,95,0.00,,,0.02,weatherlink.com 1.10,2013-03-22 03:07:00,
2013-03-21 20:22:00,36.3,35.0,30.15,SW,234,0.0,1.0,95,0.00,,,0.02,weatherlink.com 1.10,2013-03-22 03:22:00,
2013-03-21 20:37:00,36.1,35.0,30.16,West,269,1.0,2.0,96,0.00,,,0.02,weatherlink.com 1.10,2013-03-22 03:37:00,
2013-03-21 20:52:00,36.2,35.0,30.16,West,269,0.0,1.0,96,0.00,,,0.02,weatherlink.com 1.10,2013-03-22 03:52:00,
2013-03-21 21:07:00,36.3,36.0,30.16,West,270,0.0,1.0,97,0.00,,,0.02,weatherlink.com 1.10,2013-03-22 04:07:00,
2013-03-21 21:22:00,36.3,35.0,30.17,WSW,256,1.0,2.0,96,0.00,,,0.02,weatherlink.com 1.10,2013-03-22 04:22:00,
2013-03-21 21:37:00,36.3,36.0,30.17,SE,134,0.0,1.0,97,0.00,,,0.02,weatherlink.com 1.10,2013-03-22 04:37:00,
2013-03-21 21:52:00,35.9,35.0,30.18,West,281,1.0,2.0,96,0.00,,,0.02,weatherlink.com 1.10,2013-03-22 04:52:00,
2013-03-21 22:07:00,35.8,35.0,30.18,SSW,207,1.0,1.0,97,0.00,,,0.02,weatherlink.com 1.10,2013-03-22 05:07:00,
2013-03-21 22:22:00,35.5,35.0,30.18,West,278,1.0,2.0,97,0.00,,,0.02,weatherlink.com 1.10,2013-03-22 05:22:00,
2013-03-21 22:37:00,35.3,35.0,30.18,WSW,248,2.0,2.0,97,0.00,,,0.02,weatherlink.com 1.10,2013-03-22 05:37:00,
2013-03-21 22:52:00,35.4,35.0,30.18,WSW,252,0.0,0.0,97,0.00,,,0.02,weatherlink.com 1.10,2013-03-22 05:52:00,
2013-03-21 23:07:00,34.8,34.0,30.18,West,277,3.0,3.0,97,0.00,,,0.02,weatherlink.com 1.10,2013-03-22 06:07:00,
2013-03-21 23:22:00,34.5,34.0,30.19,WSW,250,1.0,2.0,97,0.00,,,0.02,weatherlink.com 1.10,2013-03-22 06:22:00,
2013-03-21 23:37:00,34.5,34.0,30.19,West,269,1.0,1.0,97,0.00,,,0.02,weatherlink.com 1.10,2013-03-22 06:37:00,
2013-03-21 23:52:00,34.8,34.0,30.19,West,278,1.0,2.0,98,0.00,,,0.02,weatherlink.com 1.10,2013-03-22 06:52:00,